Location: Unspecified
(41.5000°N, 0.0000°E)
Time: 03:05:54
(UTC+00:00)

deb Explorer IX - Pass Details

Date: 29 June 2019
Orbit: 544 x 1107 km, 38.8° (Epoch: 12 October)

Event Time Altitude Azimuth Distance (km) Brightness Sun altitude
Rises 12:26:50 0° 258° (WSW) 3,542 ? 71.1°
Reaches altitude 10° 12:29:18 10° 256° (WSW) 2,676 ? 70.9°
Maximum altitude 12:35:50 70° 174° (S) 1,100 ? 70.5°
Drops below altitude 10° 12:43:04 10° 92° (E) 2,946 ? 69.9°
Sets 12:45:54 0° 91° (E) 3,919 ? 69.7°
